Regional Weather Roundup
Issued by NWS

Home | Current Version | Previous Version | Text Only | Print | Product List | Glossary Off
Versions: 1 2 3 4 5 6 7 8 9 10 11 12 13 14 15 16 17 18 19 20 21 22 23 24 25 26 27 28 29 30 31 32 33 34 35 36 37 38 39 40 41 42 43 44 45 46 47 48 49 50

000
ASUS43 KFSD 261202
RWRSD

WEATHER ROUNDUP FOR SOUTH DAKOTA
NATIONAL WEATHER SERVICE SIOUX FALLS SD
700 AM CDT MON JUN 26 2017

NOTE: "FAIR" INDICATES FEW OR NO CLOUDS BELOW 12,000 FEET WITH NO
SIGNIFICANT WEATHER AND/OR OBSTRUCTIONS TO VISIBILITY.


SDZ001>005-009-010-012>017-261300-
NORTHWEST AND NORTH CENTRAL SOUTH DAKOTA

CITY           SKY/WX    TMP DP  RH WIND       PRES   REMARKS
BUFFALO          N/A     47  40  76 NE6       30.18R
FAITH            N/A     48  44  86 S9        30.25S
MOBRIDGE       CLEAR     46  40  79 CALM      30.25R
$$

SDZ012>016-024>037-041>051-057-063-072>074-261300-
SOUTHWEST AND SOUTH CENTRAL SOUTH DAKOTA

CITY           SKY/WX    TMP DP  RH WIND       PRES   REMARKS
RAPID CTY ARPT CLEAR     47  38  71 W3        30.26R
PIERRE         CLEAR     48  44  86 E8        30.23R
CUSTER         CLEAR     39  31  72 NW5       30.32R
ELLSWORTH AFB  CLEAR     50  38  63 SW6       30.25S
PHILIP         CLEAR     42  40  92 W6        30.25R
PINE RIDGE     PTCLDY    43  39  86 CALM      30.25S
SPEARFISH      FAIR      48  36  61 CALM      30.25R
WINNER         FAIR      50  45  83 NW3       30.25R
$$

SDZ004>011-016>023-039-040-261300-
NORTHEAST SOUTH DAKOTA

CITY           SKY/WX    TMP DP  RH WIND       PRES   REMARKS
ABERDEEN       SUNNY     46  43  89 NW5       30.26R
WATERTOWN      SUNNY     45  43  93 CALM      30.23R
BROOKINGS      SUNNY     45  45 100 CALM      30.23R
SISSETON         N/A     48  42  80 NW3       30.23R
$$

SDZ017-020-022-023-036>040-048>070-261300-
SOUTHEAST SOUTH DAKOTA

CITY           SKY/WX    TMP DP  RH WIND       PRES   REMARKS
SIOUX FALLS    MOSUNNY   53  52  96 CALM      30.22R
HURON          SUNNY     47  46  97 NW3       30.24R
CHAMBERLAIN    CLEAR     53  48  82 N3        30.25R
MITCHELL       CLEAR     50  49  96 CALM      30.24R
YANKTON        SUNNY     52  50  93 N3        30.22R
$$

ABBREVIATIONS USED IN REMARKS
   TC - TEMPERATURE IN CELSIUS
  WCI - WIND CHILL INDEX
   HX - HEAT INDEX
  VSB - VISIBILITY





USA.gov is the U.S. government's official web portal to all federal, state and local government web resources and services.